Tracking 18851 objects as of 24-Nov-2017
HD Live streaming from Space Station
objects crossing your sky now

COSMOS 1174

Track COSMOS 1174 now!
10-day predictions
COSMOS 1174 is classified as:


NORAD ID: 11765
Int'l Code: 1980-030A
Perigee: 371.9 km
Apogee: 1,168.5 km
Inclination: 66.1 °
Period: 100.1 minutes
Semi major axis: 7141 km
RCS: 4.5129 m2 (large)
Launch date: April 18, 1980
Source: Commonwealth of Independent States (former USSR) (CIS)
Launch site: TYURATAM MISSILE AND SPACE COMPLEX (TTMTR)
aabbcc
Your satellite tracking list
Your tracking list is empty




NASA's NSSDC Master Catalog

Two Line Element Set (TLE):
1 11765U 80030A   17328.62794128 +.00000572 +00000-0 +37327-4 0  9991
2 11765 066.0858 212.3040 0557784 216.4958 139.6897 14.38620257927399
Source of the keplerian elements: AFSPC